Regional Weather Roundup
Issued by NWS

Home | Current Version | Previous Version | Text Only | Print | Product List | Glossary Off
Versions: 1 2 3 4 5 6 7 8 9 10 11 12 13 14 15 16 17 18 19 20 21 22 23 24 25 26 27 28 29 30 31 32 33 34 35 36 37 38 39 40 41 42 43 44 45 46 47 48 49 50

000
ASUS45 KSLC 201210
RWRUT

UTAH REGIONAL WEATHER ROUNDUP
NATIONAL WEATHER SERVICE SALT LAKE CITY UT
600 AM MDT MON OCT 20 2014

UTZ001>011-023>025-201300-

NORTHERN UTAH

CITY           SKY/WX    TMP DP  RH WIND       PRES   REMARKS
BRIGHAM CITY   CLEAR     42  34  73 CALM      30.05S
HILL AFB       CLEAR     51  31  47 E21       30.05S
LOGAN          CLEAR     36  32  85 CALM      30.06S
OGDEN          CLEAR     50  33  52 S9        30.03S
PROVO AIRPORT  CLEAR     41  36  81 CALM      30.08R
SALT LAKE CITY PTCLDY    50  39  66 SE7       30.03S
VERNAL         CLEAR     38  31  76 NW5       30.15R WCI  34
WENDOVER       CLOUDY    48  34  57 NE5       30.04R
HEBER CITY     CLEAR     32  30  93 CALM      30.15R
WEST JORDAN    CLEAR     52  41  66 SW7       30.05S

$$

UTZ012>022-026-027-201300-

SOUTHERN/CENTRAL UTAH

CITY           SKY/WX    TMP DP  RH WIND       PRES   REMARKS
BLANDING       CLEAR     46  39  78 NE3       30.25S
BRYCE CANYON   CLEAR     31  28  89 W7        30.23S WCI  24
CEDAR CITY     CLEAR     42  36  79 CALM      30.09R
DELTA          CLEAR     43  35  73 E5        30.07R
HANKSVILLE       N/A     43  32  65 CALM      30.12R
MILFORD        CLEAR     43  32  65 SW7       30.07S
MOAB/CYNLANDS  MOCLDY    53  40  61 E3        30.09R
PRICE          CLEAR     47  31  53 NE3       30.15R
ST GEORGE      SUNNY     57  36  44 CALM      29.99S
KANAB            N/A     48  34  57 NW12      30.12S

$$

REGIONAL REPORTS     COLORADO/ARIZONA

CITY           SKY/WX    TMP DP  RH WIND       PRES   REMARKS
CRAIG, CO      CLEAR     30  26  85 CALM      30.20S
GRAND JUNCTION PTCLDY    47  34  60 SE8       30.13R
RIFLE          CLEAR     40  34  79 CALM      30.18S
MONTROSE       CLEAR     44  37  76 SE7       30.20R
CORTEZ         CLEAR     39  37  92 CALM      30.20R
PAGE, AZ       NOT AVBL
GRAND CANYON   CLEAR     38  34  85 NE8       30.16F WCI  32
KINGMAN        CLEAR     60  43  53 SE13      29.98R
FLAGSTAFF      CLEAR     34  31  88 CALM      30.18R

$$

REGIONAL REPORTS    NEVADA/IDAHO/WYOMING

CITY           SKY/WX    TMP DP  RH WIND       PRES   REMARKS
LAS VEGAS, NV  CLEAR     67  38  34 SW6       29.86R
ELY            CLEAR     38  28  67 VRB3      30.11S
ELKO           CLEAR     41  28  60 E6        30.02R
POCATELLO, ID  CLEAR     34  31  88 CALM      30.04R
BURLEY         CLEAR     43  32  65 VRB6      29.97S
EVANSTON, WY   CLEAR     44  27  51 SE6       30.18S
ROCK SPRINGS   PTCLDY    38  28  67 S8        30.18S WCI  32
KEMMERER       CLEAR     36  28  75 N10       30.19F WCI  28

$$



USA.gov is the U.S. government's official web portal to all federal, state and local government web resources and services.